Flag for U.S.A. Weather past 2 weeks in Bridgeport, Connecticut, U.S.A.

Now
34 °F

Clear.


Feels Like: 26 °F
Forecast: 33 / 48 °F
Wind: 10 mph from Northeast

Location: Sikorsky Memorial Airport


UV Index: 0 (Low)

Visibility: 10 mi


Pressure: 30.58 "Hg

Humidity: 70%

Dew point: 25 °F

Location of BridgeportLocation

Historic Weather in Bridgeport

°F

Bridgeport temperature yesterday

Maximum temperature yesterday: 44 °F (at 2:52 PM)
Minimum temperature yesterday: 33 °F (at 5:52 AM)
Average temperature yesterday: 39 °F

Past Weeks' High & Low Weather Summary

 TemperatureHumidityPressure
High68 °F (Apr 12, 3:52 PM)100% (Apr 5, 12:52 AM)30.75 "Hg (Apr 5, 12:52 AM)
Low32 °F (Apr 16, 5:52 AM)21% (Apr 9, 9:52 PM)29.38 "Hg (Apr 8, 2:52 PM)
Average48 °F67%30.03 "Hg
* Reported Apr 3 3:52 AM — Apr 18 3:52 AM, Bridgeport, Weather by CustomWeather, © 2014

Note: Actual official high and low records may vary slightly from our data, if they occured in-between our weather recording intervals... More about our weather records

Advertising

Historic Weather Conditions — Data for Previous 24 hours

 ConditionsComfort  
Time TempWeatherWind HumidityBarometerVisibility
3:52 AM
Apr 18
34 °FClear.10 mph70%30.58 "Hg10 mi
2:52 AM35 °FClear.10 mph67%30.61 "Hg10 mi
1:52 AM37 °FClear.12 mph62%30.61 "Hg10 mi
12:52 AM38 °FClear.13 mph63%30.61 "Hg10 mi
11:52 PM
Apr 17
39 °FClear.14 mph62%30.61 "Hg10 mi
10:52 PM41 °FClear.16 mph65%30.62 "Hg10 mi
9:52 PM41 °FClear.17 mph67%30.66 "Hg10 mi
8:52 PM41 °FClear.12 mph67%30.66 "Hg10 mi
7:52 PM42 °FSunny.12 mph65%30.66 "Hg10 mi
6:52 PM43 °FSunny.12 mph65%30.67 "Hg10 mi
5:52 PM44 °FSunny.13 mph60%30.67 "Hg10 mi
4:52 PM44 °FSunny.12 mph58%30.68 "Hg10 mi
3:52 PM44 °FSunny.10 mph55%30.69 "Hg10 mi
2:52 PM44 °FSunny.12 mph49%30.70 "Hg10 mi
1:52 PM43 °FSunny.12 mph56%30.72 "Hg10 mi
12:52 PM42 °FSunny.12 mph55%30.72 "Hg10 mi
11:52 AM41 °FSunny.12 mph55%30.74 "Hg10 mi
10:52 AM41 °FSunny.13 mph51%30.75 "Hg10 mi
9:52 AM39 °FSunny.12 mph53%30.75 "Hg10 mi
8:52 AM38 °FSunny.15 mph51%30.73 "Hg10 mi
7:52 AM36 °FSunny.12 mph50%30.72 "Hg10 mi
6:52 AM34 °FClear.12 mph54%30.69 "Hg10 mi
5:52 AM33 °FClear.8 mph61%30.67 "Hg10 mi
4:52 AM34 °FClear.7 mph59%30.67 "Hg10 mi
Weather by CustomWeather, © 2014

See weather overview